Location: Sungai Igah
(2.7333°N, 114.2500°E)
Time: 03:46:20
(UTC+00:00)

H-2A R/B - Pass Details

Date: 14 June 2021
Orbit: 501 x 538 km, 97.3° (Epoch: 12 March)

Event Time Altitude Azimuth Distance (km) Brightness Sun altitude
Rises 21:07:55 0° 16° (NNE) 2,667 7.0 -16.1°
Reaches altitude 10° 21:10:03 10° 20° (NNE) 1,776 6.0 -15.7°
Maximum altitude 21:13:50 62° 101° (E) 596 3.2 -14.8°
Drops below altitude 10° 21:17:37 10° 182° (S) 1,767 5.1 -13.9°
Enters shadow 21:19:03 - 185° (S) 2,368 5.8 -13.6°
